Regional Weather Roundup
Issued by NWS State College, PA

Home | Current Version | Previous Version | Graphics & Text | Print | Product List | Glossary On
Versions: 1 2 3 4 5 6 7 8 9 10 11 12 13 14 15 16 17 18 19 20 21 22 23 24 25 26 27 28 29 30 31 32 33 34 35 36 37 38 39 40 41 42 43 44 45 46 47 48 49 50
000
ASUS41 KCTP 041003
RWRCTP

REGIONAL WEATHER ROUNDUP
NATIONAL WEATHER SERVICE STATE COLLEGE PA
600 AM EDT FRI SEP 04 2015

Note: "fair" indicates few or no clouds below 12,000 feet with no
significant weather and/or obstructions to visibility.

* = STATION THAT DOES NOT REPORT PRECIPITATION /E.G. RAIN...SNOW...ETC/
    THUNDER OR FOG.

PAZ002>004-007>009-013>016-020>023-029>032-041100-
WESTERN PENNSYLVANIA

CITY           SKY/WX    TMP DP  RH WIND       PRES   REMARKS
ERIE           CLOUDY    71  67  87 SW5       30.01R FOG
MEADVILLE      CLEAR     66  63  90 S3        30.05R FOG
FRANKLIN*      CLOUDY    64  63  94 CALM      30.07R VSB<1/4
NEW CASTLE     FAIR      66  66 100 CALM      30.05R FOG
BEAVER COUNTY  NOT AVBL
BUTLER*          N/A     64  63  94 CALM      30.05S VSB<1/4
PITTSBURGH INT MOCLDY    69  65  86 CALM      30.04R
PITTSBURGH     CLEAR     68  63  84 NW5       30.03R HAZE
INDIANA*       MOCLDY    64  64 100 CALM      30.08R FOG
LATROBE        NOT AVBL
WASHINGTON CO* PTCLDY    63  63 100 CALM      30.06R VSB 1
$$

PAZ004>006-010>012-017>019-024>028-033>037-041-042-045-046-049>053-041100-
CENTRAL PENNSYLVANIA

CITY           SKY/WX    TMP DP  RH WIND       PRES   REMARKS
BRADFORD       FOG       63  62  97 CALM      30.08R VSB 1/4
DUBOIS         CLEAR     64  62  93 CALM      30.05R FOG
CLEARFIELD     CLEAR     62  60  93 CALM      30.06R FOG
JOHNSTOWN      PTCLDY    65  62  90 CALM      30.08R FOG
ALTOONA        CLEAR     63  61  93 CALM      30.05R FOG
STATE COLLEGE  CLEAR     64  63  94 CALM      30.03R
WILLIAMSPORT   MOCLDY    68  65  90 W7        30.00R
SELINSGROVE    NOT AVBL
FT INDIANTOWN  CLEAR     69  66  89 NE3       29.97R
CAPITAL CITY   CLEAR     69  66  90 W3        29.97R
HARRISBURG     PTCLDY    73  68  84 NW5       29.96R
YORK           CLEAR     64  62  93 CALM      29.97R FOG
$$

PAZ038>040-043-044-047-048-054-055-060>062-067>071-041100-
EASTERN PENNSYLVANIA

CITY           SKY/WX    TMP DP  RH WIND       PRES   REMARKS
SCRANTON       CLEAR     67  64  90 E5        30.01R FOG
MOUNT POCONO   CLEAR     68  64  87 NE8       30.05R
ALLENTOWN      CLEAR     70  66  87 NE3       29.97R
QUAKERTOWN*    SUNNY     72  66  83 CALM      29.98R
READING        CLEAR     71  66  84 N8        29.96R
LANCASTER      CLEAR     71  66  84 CALM      29.96R
COATESVILLE    SUNNY     73  68  83 N5        29.98R
POTTSTOWN      CLEAR     68  68 100 CALM      29.98R
BLUE BELL      CLEAR     68  68 100 CALM      29.95R
DOYLESTOWN     CLEAR     69  67  93 NE3       29.96R
WILLOW GROVE   NOT AVBL
NORTH PHILA    CLEAR     74  66  76 N3        29.96R HAZE
PHILADELPHIA   PTCLDY    77  68  73 E5        29.94R
$$



USA.gov is the U.S. government's official web portal to all federal, state and local government web resources and services.